�N����,����,�~����,�C��,���x,�C��,����,���ϕ���,�ő�u�ԕ���,�ő厞����,���˗�,�I�_���x,�n�����x,�ő啗���N��,DTYPE
"21/05/31","00:10",0.0,15.1,79.1,1006.9,321.0,2.3,3.6,329.9,0.00,11.5,130.0,"00:05:04",1
"21/05/31","00:20",0.0,15.0,79.2,1007.1,318.0,1.5,2.5,334.0,0.00,11.5,130.0,"00:19:20",1
"21/05/31","00:30",0.0,15.1,79.5,1006.9,322.3,2.3,3.6,331.6,0.00,11.6,130.0,"00:22:40",1
"21/05/31","00:40",0.0,15.1,79.3,1007.4,325.3,1.2,2.5,327.7,0.00,11.6,130.0,"00:30:08",1
"21/05/31","00:50",0.0,14.9,79.4,1007.4,333.9,2.0,3.2,348.0,0.00,11.4,130.0,"00:40:02",1
"21/05/31","01:00",0.0,14.9,79.5,1006.9,310.5,1.8,3.3,329.1,0.00,11.4,130.0,"00:51:12",1
"21/05/31","01:10",0.0,14.8,79.8,1006.9,311.5,2.1,3.9,325.7,0.00,11.4,130.0,"01:08:24",1
"21/05/31","01:20",0.0,14.7,80.0,1006.9,327.4,2.5,3.9,340.0,0.00,11.3,130.0,"01:10:32",1
"21/05/31","01:30",0.0,14.2,80.4,1007.1,330.7,2.2,3.6,342.7,0.00,10.9,130.0,"01:27:22",1
"21/05/31","01:40",0.0,14.1,80.6,1007.1,332.4,2.3,3.9,333.2,0.00,10.9,130.0,"01:31:12",1
"21/05/31","01:50",0.0,14.0,80.8,1007.1,334.3,2.6,4.2,341.4,0.00,10.8,130.0,"01:42:26",1
"21/05/31","02:00",0.0,13.8,80.9,1007.4,334.5,2.6,4.1,344.3,0.00,10.6,130.0,"01:55:34",1
"21/05/31","02:10",0.0,13.7,81.0,1007.6,335.8,2.1,3.4,335.8,0.00,10.5,130.0,"02:02:02",1
"21/05/31","02:20",0.0,13.5,81.2,1007.1,331.8,2.6,4.3,333.8,0.00,10.4,130.0,"02:19:10",1
"21/05/31","02:30",0.0,13.6,81.0,1007.4,332.2,2.3,3.9,338.1,0.00,10.4,130.0,"02:20:24",1
"21/05/31","02:40",0.0,13.6,80.8,1007.6,334.2,2.7,5.7,329.1,0.00,10.4,130.0,"02:38:32",1
"21/05/31","02:50",0.0,13.7,80.7,1007.1,330.4,2.6,4.1,320.2,0.00,10.5,130.0,"02:41:52",1
"21/05/31","03:00",0.0,13.8,80.8,1007.6,324.3,2.3,4.2,344.4,0.00,10.6,130.0,"02:59:40",1
"21/05/31","03:10",0.0,14.0,81.0,1007.1,325.4,3.1,5.1,330.3,0.00,10.8,130.0,"03:08:10",1
"21/05/31","03:20",0.0,13.8,81.0,1007.6,331.6,2.7,5.1,335.9,0.00,10.6,130.0,"03:16:14",1
"21/05/31","03:30",0.0,13.5,81.6,1006.9,333.4,2.3,4.3,337.1,0.00,10.5,130.0,"03:29:26",1
"21/05/31","03:40",0.0,13.7,82.2,1007.1,336.7,2.6,4.7,329.7,0.00,10.8,130.0,"03:34:54",1
"21/05/31","03:50",0.0,13.4,82.8,1007.1,339.1,3.1,5.1,348.4,0.00,10.6,130.0,"03:43:52",1
"21/05/31","04:00",0.0,13.5,83.3,1007.1,344.2,2.8,5.8,333.9,0.00,10.8,130.0,"03:59:26",1
"21/05/31","04:10",0.0,13.3,83.1,1007.1,340.2,2.3,4.0,332.0,0.00,10.5,130.0,"04:02:26",1
"21/05/31","04:20",0.0,13.3,82.8,1007.6,342.6,2.7,4.5,348.2,0.00,10.5,130.0,"04:15:56",1
"21/05/31","04:30",0.0,13.3,83.0,1007.6,339.1,2.2,4.1,339.9,0.00,10.5,130.0,"04:24:34",1
"21/05/31","04:40",0.0,13.0,83.1,1007.4,342.1,2.3,3.6,331.7,0.00,10.2,130.0,"04:31:52",1
"21/05/31","04:50",0.0,12.9,83.6,1007.4,335.5,2.2,4.0,317.2,0.00,10.2,130.0,"04:49:42",1
"21/05/31","05:00",0.0,13.2,84.3,1007.8,332.5,3.2,5.0,332.5,0.00,10.7,130.0,"04:59:44",1
"21/05/31","05:10",0.0,12.8,84.6,1007.6,340.2,2.6,5.2,334.3,0.00,10.3,130.0,"05:00:40",1
"21/05/31","05:20",0.0,12.5,85.2,1008.1,333.3,2.0,3.6,333.0,0.00,10.1,130.0,"05:11:52",1
"21/05/31","05:30",0.0,12.5,85.6,1008.1,325.0,1.8,3.1,341.2,0.00,10.2,130.0,"05:26:12",1
"21/05/31","05:40",0.0,12.5,85.7,1008.1,324.9,2.8,4.7,325.7,0.00,10.2,130.0,"05:39:14",1
"21/05/31","05:50",0.0,12.7,85.4,1008.3,335.7,2.7,4.2,334.8,0.00,10.4,130.0,"05:41:44",1
"21/05/31","06:00",0.0,12.7,85.2,1008.3,333.8,2.5,3.9,328.4,0.01,10.3,130.0,"05:57:36",1
"21/05/31","06:10",0.0,13.4,84.8,1008.8,312.9,2.1,3.7,325.8,0.02,10.9,130.0,"06:02:40",1
"21/05/31","06:20",0.0,13.8,83.7,1008.8,307.6,1.8,2.6,324.2,0.04,11.1,130.0,"06:12:00",1
"21/05/31","06:30",0.0,14.3,81.9,1009.0,319.1,1.8,3.1,330.9,0.05,11.3,130.0,"06:27:04",1
"21/05/31","06:40",0.0,15.1,79.7,1009.0,306.6,1.5,2.6,332.8,0.07,11.7,130.0,"06:33:20",1
"21/05/31","06:50",0.0,15.8,77.5,1008.8,301.3,1.3,2.9,339.2,0.09,11.9,130.0,"06:48:56",1
"21/05/31","07:00",0.0,16.2,76.1,1009.0,330.0,2.1,4.4,331.9,0.12,12.0,130.0,"06:57:28",1
"21/05/31","07:10",0.0,17.0,75.5,1008.6,330.5,1.8,3.4,350.4,0.14,12.7,130.0,"07:02:24",1
"21/05/31","07:20",0.0,17.4,74.3,1008.6,329.7,2.2,4.0,329.1,0.17,12.8,130.0,"07:13:52",1
"21/05/31","07:30",0.0,18.0,72.7,1008.6,327.5,2.2,3.7,341.7,0.19,13.1,130.0,"07:27:20",1
"21/05/31","07:40",0.0,18.6,70.3,1008.3,331.4,2.1,3.4,341.0,0.22,13.1,130.0,"07:37:44",1
"21/05/31","07:50",0.0,20.0,67.7,1008.1,346.5,0.8,1.8,340.6,0.24,13.9,130.0,"07:45:28",1
"21/05/31","08:00",0.0,20.4,64.0,1007.8,173.9,0.6,1.7,222.3,0.27,13.4,130.0,"07:58:24",1
"21/05/31","08:10",0.0,20.4,62.9,1008.1,235.6,0.8,2.4,232.0,0.30,13.1,130.0,"08:00:32",1
"21/05/31","08:20",0.0,21.1,61.8,1007.8,194.5,0.7,1.6,174.0,0.32,13.5,130.0,"08:18:56",1
"21/05/31","08:30",0.0,21.5,59.6,1007.6,135.9,1.0,2.5,134.3,0.35,13.4,130.0,"08:26:00",1
"21/05/31","08:40",0.0,21.8,58.3,1007.6,248.3,0.8,2.2,171.4,0.37,13.3,130.0,"08:38:32",1
"21/05/31","08:50",0.0,22.1,56.3,1007.1,169.1,0.7,1.8,343.1,0.39,13.0,130.0,"08:49:36",1
"21/05/31","09:00",0.0,22.2,56.3,1007.6,3.1,0.8,1.6,359.1,0.41,13.1,130.0,"08:53:04",1
"21/05/31","09:10",0.0,22.2,54.2,1007.4,354.7,1.1,2.7,331.2,0.43,12.6,130.0,"09:00:32",1
"21/05/31","09:20",0.0,22.9,52.9,1006.9,17.2,0.8,1.9,349.1,0.46,12.8,130.0,"09:14:40",1
"21/05/31","09:30",0.0,23.6,49.4,1006.7,155.1,0.8,2.0,166.5,0.48,12.4,130.0,"09:23:20",1
"21/05/31","09:40",0.0,24.1,46.2,1006.2,102.4,1.0,2.9,219.8,0.50,11.9,130.0,"09:30:02",1
"21/05/31","09:50",0.0,24.3,44.4,1006.2,175.6,1.1,2.8,130.7,0.51,11.5,130.0,"09:40:56",1
"21/05/31","10:00",0.0,25.0,43.8,1006.2,320.7,0.6,2.4,123.7,0.53,11.9,130.0,"09:59:36",1
"21/05/31","10:10",0.0,25.4,42.9,1006.7,183.7,0.8,1.8,167.7,0.54,11.9,130.0,"10:01:44",1
"21/05/31","10:20",0.0,25.0,42.4,1006.2,343.6,1.1,2.5,347.9,0.55,11.4,130.0,"10:16:32",1
"21/05/31","10:30",0.0,25.2,39.9,1006.2,339.3,1.0,2.2,347.6,0.57,10.7,130.0,"10:20:16",1
"21/05/31","10:40",0.0,25.1,39.4,1006.0,353.0,1.2,3.2,47.2,0.58,10.4,130.0,"10:38:08",1
"21/05/31","10:50",0.0,25.8,38.3,1006.0,49.1,0.8,2.9,350.2,0.59,10.6,130.0,"10:46:00",1
"21/05/31","11:00",0.0,26.4,36.6,1006.0,153.5,1.1,2.5,151.0,0.60,10.4,130.0,"10:53:04",1
"21/05/31","11:10",0.0,26.3,33.9,1006.0,157.8,1.3,3.4,158.4,0.61,9.2,130.0,"11:07:12",1
"21/05/31","11:20",0.0,26.6,36.3,1005.5,183.1,1.6,3.2,191.9,0.62,10.5,130.0,"11:10:16",1
"21/05/31","11:30",0.0,26.9,35.0,1006.0,210.0,1.2,2.8,195.4,0.62,10.2,130.0,"11:26:00",1
"21/05/31","11:40",0.0,27.3,33.4,1005.7,104.7,1.0,2.6,184.9,0.63,9.9,130.0,"11:39:36",1
"21/05/31","11:50",0.0,27.5,33.1,1005.7,159.6,1.3,3.1,122.5,0.63,9.9,130.0,"11:41:36",1
"21/05/31","12:00",0.0,27.2,29.5,1005.7,249.1,1.5,4.2,224.0,0.63,7.9,130.0,"11:57:44",1
"21/05/31","12:10",0.0,27.3,34.2,1005.7,175.0,2.2,4.4,198.1,0.63,10.2,130.0,"12:08:56",1
"21/05/31","12:20",0.0,27.5,35.7,1005.5,184.7,2.1,5.7,190.6,0.63,11.0,130.0,"12:11:12",1
"21/05/31","12:30",0.0,27.9,32.1,1005.5,167.1,1.6,3.6,195.9,0.63,9.8,130.0,"12:25:04",1
"21/05/31","12:40",0.0,28.7,33.1,1005.5,234.7,1.0,2.5,204.8,0.63,10.9,130.0,"12:35:28",1
"21/05/31","12:50",0.0,28.5,31.0,1005.5,146.9,1.6,4.1,208.6,0.63,9.8,130.0,"12:46:00",1
"21/05/31","13:00",0.0,28.3,30.6,1005.5,183.5,2.2,4.0,228.4,0.62,9.4,130.0,"12:57:52",1
"21/05/31","13:10",0.0,28.0,30.3,1005.0,203.9,2.2,5.2,218.4,0.61,9.0,130.0,"13:04:56",1
"21/05/31","13:20",0.0,28.4,31.0,1005.5,145.9,1.7,3.7,172.1,0.60,9.7,130.0,"13:17:44",1
"21/05/31","13:30",0.0,28.6,30.8,1005.0,162.1,1.7,4.7,174.3,0.59,9.8,130.0,"13:21:44",1
"21/05/31","13:40",0.0,28.8,30.7,1005.2,280.7,1.1,3.9,349.3,0.58,9.9,130.0,"13:37:04",1
"21/05/31","13:50",0.0,29.2,30.4,1005.5,191.0,1.2,3.9,193.0,0.57,10.1,130.0,"13:44:16",1
"21/05/31","14:00",0.0,29.5,31.3,1005.5,164.3,1.1,2.6,206.2,0.56,10.8,130.0,"13:50:24",1
"21/05/31","14:10",0.0,29.8,31.1,1005.0,276.1,1.1,3.5,174.6,0.55,11.0,130.0,"14:00:02",1
"21/05/31","14:20",0.0,29.3,30.1,1005.5,96.1,1.7,3.9,187.3,0.54,10.0,130.0,"14:10:16",1
"21/05/31","14:30",0.0,29.6,31.2,1005.2,212.9,1.2,3.2,338.8,0.52,10.8,130.0,"14:22:56",1
"21/05/31","14:40",0.0,29.4,31.5,1005.2,181.8,1.6,4.4,136.2,0.50,10.8,130.0,"14:38:40",1
"21/05/31","14:50",0.0,29.7,30.7,1005.0,130.9,1.2,3.9,342.9,0.48,10.7,130.0,"14:49:20",1
"21/05/31","15:00",0.0,29.7,31.1,1005.2,153.9,1.2,2.9,115.4,0.47,10.9,130.0,"14:59:44",1
"21/05/31","15:10",0.0,29.6,28.5,1004.8,136.6,1.2,3.7,134.4,0.44,9.5,130.0,"15:05:44",1
"21/05/31","15:20",0.0,29.3,28.2,1005.0,163.6,1.5,4.1,161.4,0.43,9.1,130.0,"15:19:36",1
"21/05/31","15:30",0.0,29.1,29.0,1004.8,146.1,1.6,4.2,137.6,0.41,9.3,130.0,"15:23:44",1
"21/05/31","15:40",0.0,29.3,29.9,1005.0,127.9,1.3,3.9,132.5,0.39,9.9,130.0,"15:36:48",1
"21/05/31","15:50",0.0,29.4,27.4,1004.5,166.7,1.2,2.6,111.6,0.38,8.7,130.0,"15:46:32",1
"21/05/31","16:00",0.0,29.3,28.7,1005.2,185.2,1.6,4.0,235.4,0.36,9.3,130.0,"15:56:40",1
"21/05/31","16:10",0.0,29.0,28.6,1004.8,212.9,2.2,4.1,210.9,0.33,9.0,130.0,"16:06:40",1
"21/05/31","16:20",0.0,28.1,27.7,1004.1,202.6,1.2,2.8,234.1,0.14,7.8,130.0,"16:10:16",1
"21/05/31","16:30",0.0,28.8,26.8,1003.8,217.0,1.6,4.4,229.3,0.27,7.9,130.0,"16:20:40",1
"21/05/31","16:40",0.0,28.5,27.9,1004.1,172.7,1.7,4.0,201.0,0.22,8.2,130.0,"16:38:16",1
"21/05/31","16:50",0.0,28.4,28.8,1003.6,245.3,1.1,3.7,213.1,0.14,8.6,130.0,"16:40:16",1
"21/05/31","17:00",0.0,28.0,31.4,1003.6,229.8,2.0,5.2,205.9,0.12,9.5,130.0,"16:58:40",1
"21/05/31","17:10",0.0,27.7,31.9,1003.1,217.2,2.1,3.9,224.7,0.07,9.5,130.0,"17:07:12",1
"21/05/31","17:20",0.0,27.3,35.2,1002.6,193.7,1.7,3.9,196.0,0.07,10.6,130.0,"17:12:40",1
"21/05/31","17:30",0.0,27.1,36.1,1003.1,198.1,2.1,4.0,195.1,0.07,10.8,130.0,"17:20:16",1
"21/05/31","17:40",0.0,27.0,36.3,1003.6,197.2,2.0,4.5,227.6,0.05,10.8,130.0,"17:38:16",1
"21/05/31","17:50",0.0,26.8,36.1,1004.3,203.1,2.3,4.5,221.7,0.03,10.6,130.0,"17:44:56",1
"21/05/31","18:00",0.0,26.5,35.5,1004.5,165.3,1.3,2.9,164.7,0.02,10.1,130.0,"17:58:32",1
"21/05/31","18:10",0.0,26.6,35.2,1004.5,69.2,0.7,2.1,68.6,0.03,10.0,130.0,"18:09:36",1
"21/05/31","18:20",0.0,27.1,37.1,1005.0,357.5,0.8,3.4,349.2,0.04,11.3,130.0,"18:10:02",1
"21/05/31","18:30",0.0,26.5,39.5,1004.8,1.4,0.8,2.8,348.5,0.02,11.7,130.0,"18:21:20",1
"21/05/31","18:40",0.0,25.6,39.6,1005.0,72.2,0.3,1.7,346.8,0.00,10.9,130.0,"18:33:12",1
"21/05/31","18:50",0.0,24.9,46.8,1005.2,350.4,1.1,2.5,353.5,0.00,12.8,130.0,"18:49:20",1
"21/05/31","19:00",0.0,24.1,47.5,1005.7,346.6,1.5,3.1,335.3,0.00,12.3,130.0,"18:58:00",1
"21/05/31","19:10",0.0,23.4,47.5,1006.0,348.4,1.7,3.9,352.4,0.00,11.7,130.0,"19:04:08",1
"21/05/31","19:20",0.0,22.9,48.9,1006.2,345.4,2.1,3.9,343.8,0.00,11.6,130.0,"19:16:32",1
"21/05/31","19:30",0.0,22.5,49.9,1006.2,341.8,2.0,3.5,344.9,0.00,11.6,130.0,"19:26:08",1
"21/05/31","19:40",0.0,22.0,51.3,1006.7,335.4,1.7,3.1,335.1,0.00,11.5,130.0,"19:30:16",1
"21/05/31","19:50",0.0,21.8,51.4,1007.1,327.4,1.8,3.2,332.9,0.00,11.4,130.0,"19:44:16",1
"21/05/31","20:00",0.0,21.5,51.8,1006.9,294.6,1.1,2.1,307.8,0.00,11.2,130.0,"19:51:36",1
"21/05/31","20:10",0.0,21.3,52.2,1007.1,275.8,1.1,1.8,273.5,0.00,11.2,130.0,"20:07:24",1
"21/05/31","20:20",0.0,21.2,53.1,1007.1,266.7,0.8,1.8,253.5,0.00,11.3,130.0,"20:18:40",1
"21/05/31","20:30",0.0,20.9,54.9,1007.4,251.9,0.7,1.7,258.4,0.00,11.5,130.0,"20:24:24",1
"21/05/31","20:40",0.0,20.5,55.2,1007.8,246.5,0.6,1.7,314.0,0.00,11.3,130.0,"20:39:28",1
"21/05/31","20:50",0.0,20.6,55.8,1008.1,305.0,1.5,2.0,317.2,0.00,11.5,130.0,"20:44:48",1
"21/05/31","21:00",0.0,20.5,57.3,1008.1,315.8,1.5,2.9,322.1,0.00,11.8,130.0,"20:51:28",1
"21/05/31","21:10",0.0,20.3,59.3,1008.1,340.5,1.3,2.1,334.1,0.00,12.2,130.0,"21:02:08",1
"21/05/31","21:20",0.0,19.9,61.3,1008.3,338.0,1.2,2.1,353.4,0.00,12.3,130.0,"21:16:48",1
"21/05/31","21:30",0.0,19.5,62.6,1008.6,335.4,2.0,3.4,341.1,0.00,12.2,130.0,"21:27:36",1
"21/05/31","21:40",0.0,19.5,62.8,1008.6,319.4,2.1,2.8,341.0,0.00,12.3,130.0,"21:30:40",1
"21/05/31","21:50",0.0,19.5,63.1,1008.6,314.1,1.6,2.6,329.2,0.00,12.3,130.0,"21:41:36",1
"21/05/31","22:00",0.0,19.4,63.7,1009.0,313.0,2.1,4.8,336.5,0.00,12.4,130.0,"21:52:16",1
"21/05/31","22:10",0.0,19.6,63.9,1009.0,324.4,2.6,4.1,337.0,0.00,12.6,130.0,"22:04:00",1
"21/05/31","22:20",0.0,19.5,64.2,1009.0,318.1,2.1,3.4,330.5,0.00,12.6,130.0,"22:10:48",1
"21/05/31","22:30",0.0,19.6,63.8,1009.0,332.7,3.0,4.7,334.5,0.00,12.6,130.0,"22:25:28",1
"21/05/31","22:40",0.0,19.3,64.8,1008.8,337.5,2.2,3.6,342.7,0.00,12.6,130.0,"22:37:36",1
"21/05/31","22:50",0.0,19.1,65.4,1009.0,328.8,2.7,4.4,340.9,0.00,12.5,130.0,"22:40:24",1
"21/05/31","23:00",0.0,19.0,65.9,1009.3,333.6,3.0,4.1,326.0,0.00,12.5,130.0,"22:51:52",1
"21/05/31","23:10",0.0,19.0,67.2,1008.8,330.7,2.7,4.9,326.1,0.00,12.8,130.0,"23:02:00",1
"21/05/31","23:20",0.0,19.0,68.0,1009.0,330.4,3.4,5.2,325.6,0.00,13.0,130.0,"23:18:24",1
"21/05/31","23:30",0.0,19.0,68.9,1009.0,332.5,3.2,5.5,331.9,0.00,13.2,130.0,"23:21:04",1
"21/05/31","23:40",0.0,18.7,69.8,1009.3,329.9,2.3,3.7,334.5,0.00,13.1,130.0,"23:30:48",1
"21/05/31","23:50",0.0,18.6,70.4,1008.8,334.7,2.3,3.9,341.3,0.00,13.2,130.0,"23:48:00",1
"21/05/31","24:00",0.0,18.4,71.0,1009.5,335.9,2.5,4.7,339.2,0.00,13.1,130.0,"23:57:36",1
